Find Starlink 35166

NORAD ID: 65499 Int'l Des: 2025-198 Owner: SPXS Country: US Constellation: starlink operational
LEOCIRCULAR

实时位置

正在加载3D地球...

关于 Starlink 35166

正在加载描述...

即将过境

Passes for default location (London). Set your location on the main map for personalized predictions.

高度历史

Loading altitude history...

两行轨道根数

1 65499U 25198H 26107.14704501 .00012560 00000-0 43537-3 0 9995
2 65499 53.1601 92.6749 0001709 103.5420 256.5771 15.30206741 34504
Epoch: Apr 17, 2026 • Age: 10 hours

当前状态

高度 480.2 km
速度 7.63 km/s
星下点 51.82°N, 153.1°E
发射日期 Sep 5, 2025
运行时间 0.6 years
类型 internet

技术详情

分类 Payload
质量 575.00 kg
干质量 530.00 kg
总质量 575.00 kg
长度 0.30 m
直径 4.10 m
跨度 29.00 m
形状 Box + pan
制造商 SPXS
平台类型 Starlink V2MO
阶段状态 In Orbit
所有者/国家 SPXS/US

Most Searched